This is the latest recevied weather packets stored in our database for station/object NZ3C. If no packets are shown the sender has not sent any weather packets the latest 10 day(s).
| Time | Temp. | Humidity | Pressure | Rain* | Wind** | Luminosity | Snow |
|---|---|---|---|---|---|---|---|
| 1778066955 | 17.22° C | 85% | 1016.7 hPa | 0 mm | - | 69 W/m² | - |
| 1778066653 | 17.22° C | 85% | 1016.4 hPa | 0 mm | - | 69 W/m² | - |
| 1778066350 | 16.67° C | 86% | 1016.5 hPa | 0 mm | - | 73 W/m² | - |
| 1778066048 | 16.67° C | 87% | 1016.2 hPa | 0 mm | - | 67 W/m² | - |
| 1778065745 | 16.11° C | 88% | 1016.4 hPa | 0 mm | - | 49 W/m² | - |
| 1778065442 | 15.56° C | 88% | 1016.3 hPa | 0 mm | - | 46 W/m² | - |
| 1778065139 | 15.56° C | 88% | 1016.5 hPa | 0 mm | - | 34 W/m² | - |
| 1778064835 | 15.56° C | 88% | 1016.5 hPa | 0 mm | - | 25 W/m² | - |
| 1778064533 | 15.56° C | 88% | 1016.6 hPa | 0 mm | - | 18 W/m² | - |
| 1778064230 | 15.56° C | 88% | 1016.8 hPa | 0 mm | - | 14 W/m² | - |
| 1778063928 | 15.56° C | 88% | 1016.6 hPa | 0 mm | - | 13 W/m² | - |
| 1778063625 | 15.56° C | 88% | 1016.7 hPa | 0 mm | - | 11 W/m² | - |
| 1778063322 | 15.56° C | 88% | 1016.7 hPa | 0 mm | - | 8 W/m² | - |
| 1778063020 | 15.56° C | 88% | 1016.6 hPa | 0 mm | - | 5 W/m² | - |
| 1778062717 | 15.56° C | 87% | 1016.8 hPa | 0 mm | - | 3 W/m² | - |
| 1778062413 | 15.56° C | 87% | 1016.5 hPa | 0 mm | - | 2 W/m² | - |
| 1778062111 | 15.56° C | 87% | 1016.5 hPa | 0 mm | - | 1 W/m² | - |
| 1778061810 | 15.56° C | 87% | 1016.4 hPa | 0 mm | - | 0 W/m² | - |
| 1778061508 | 15.56° C | 87% | 1016.4 hPa | 0 mm | - | 0 W/m² | - |
| 1778061204 | 15.56° C | 87% | 1016.6 hPa | 0 mm | - | 0 W/m² | - |
| 1778060901 | 15.56° C | 87% | 1016.3 hPa | 0 mm | - | 0 W/m² | - |
| 1778060600 | 15.56° C | 87% | 1016.3 hPa | 0 mm | - | 0 W/m² | - |
| 1778060298 | 15.56° C | 87% | 1016.4 hPa | 0 mm | - | 0 W/m² | - |
| 1778059994 | 15.56° C | 88% | 1016.5 hPa | 0 mm | - | 0 W/m² | - |
| 1778059692 | 15° C | 88% | 1016.5 hPa | 0 mm | - | 0 W/m² | - |
* Rain latest hour (hover to see other rain measurements)
** Current wind speed in m/s (hover to see current wind gust speed)